Location: Paris
(48.6709°N, 2.3750°E)
Time: 22:12:24
(UTC+02:00)

YUBILEINY - Pass Details

Date: 02 July 2022
Orbit: 1478 x 1509 km, 82.5° (Epoch: 08 August)

Event Time Altitude Azimuth Distance (km) Brightness Sun altitude
Rises 05:03:55 0° 351° (N) 4,655 ? -6.8°
Reaches altitude 10° 05:07:02 10° 357° (N) 3,668 ? -6.4°
Maximum altitude 05:15:29 47° 70° (ENE) 1,899 ? -5.4°
Drops below altitude 10° 05:23:49 10° 143° (SE) 3,627 ? -4.4°
Sets 05:26:51 0° 149° (SSE) 4,600 ? -4.1°
